Location: Beaver Meadows
(40.3729°N, 105.6140°W)
Time: 12:11:52
(UTC-07:00)

Iridium 67 - Visible Passes

Search period start: 19 February 2017 00:00
Search period end: 01 March 2017 00:00
Orbit: 776 x 779 km, 86.4° (Epoch: 19 February)

Date Brightness Start Highest point End Pass type
(mag) Time Alt. Az. Time Alt. Az. Time Alt. Az.
19 Feb 7.2 18:25:20 10° NE 18:27:17 12° ENE 18:28:06 12° E visible
19 Feb 5.6 20:03:25 10° N 20:08:37 76° W 20:08:41 76° W visible
20 Feb 5.5 19:29:56 10° N 19:35:05 58° E 19:37:03 36° SSE visible
20 Feb 8.2 21:12:15 10° NW 21:15:14 15° WNW 21:17:41 12° WSW visible
21 Feb 6.2 18:56:47 10° NNE 19:01:25 31° E 19:06:01 10° SE visible
21 Feb 7.4 20:37:37 10° NNW 20:42:01 28° W 20:46:23 10° SW visible
22 Feb 6.9 18:24:11 10° NNE 18:27:38 18° ENE 18:31:03 10° ESE visible
22 Feb 6.2 20:03:37 10° NNW 20:08:40 52° W 20:13:41 10° SSW visible
23 Feb 5.4 19:29:58 10° N 19:35:12 85° E 19:40:25 10° S visible
23 Feb 8.6 21:14:21 10° WNW 21:15:05 10° WNW 21:15:49 10° W visible
24 Feb 5.7 18:56:37 10° N 19:01:38 45° E 19:06:35 10° SSE visible
24 Feb 8.0 20:38:16 10° NW 20:41:57 20° W 20:45:36 10° SW visible
25 Feb 6.5 18:23:38 10° NNE 18:27:54 25° ENE 18:32:09 10° SE visible
25 Feb 7.0 20:03:58 10° NNW 20:08:40 36° W 20:13:22 10° SSW visible
26 Feb 5.9 19:30:06 10° N 19:35:17 67° W 19:40:26 10° S visible
27 Feb 5.5 18:56:34 10° N 19:01:46 67° E 19:06:56 10° S visible
27 Feb 8.5 20:39:20 10° NW 20:41:50 14° WNW 20:44:19 10° WSW visible
28 Feb 6.1 18:23:21 10° NNE 18:28:08 36° E 18:32:53 10° SSE visible
28 Feb 7.7 20:04:27 10° NNW 20:08:38 25° W 20:12:48 10° SW visible
